Weather in Davlekanovo

Russia / Republic of Bashkortostan     54°13′21″N   55°01′52″E
temp.,
°C
wind,
m/s
gust,
m/s
humid.,
%
clouds,
%
prec.,
mm/h
press.,
hPa
HPBL,
m
24 september, fri
fri2423:00+11sse51350100 0.0 1024349
02:00+10se51451100 0.0 1024446
05:00+11sse61547100 0.0 1023601
08:00+10sse61348100 0.0 1023705
11:00+11sse71445100 0.0 1023711
14:00+13sse81134100 0.0 1023789
17:00+13sse4933100 0.0 1022579
20:00+11se2439100 0.0 102196
25 september, sat
sat2523:00+11ese2652100 0.4 1020174
02:00+11ese61243100 0.1 1018543
05:00+11ese51137100 0.1 1017436
08:00+10ese51238100 0.0 1015499
11:00+14sse71128100 0.0 1014932
14:00+18sse81122100 0.0 10121403
17:00+15se61133100 0.1 10111054
20:00+10ese51168100 0.9 1013466
26 september, sun
sun2623:00+11ene2560100 1.0 1011126
02:00+12ese3742100 0.0 1009146
05:00+13ese41044100 0.0 1008279
08:00+13ese51045100 0.2 1009421
11:00+9se51187100 1.7 1010518
14:00+11se5885100 0.8 1009700
17:00+15se566290 0.8 10081143
20:00+11ese61358100 0.0 1009338
27 september, mon
mon2723:00+12ese61342100 0.0 1009655
02:00+9ese71267100 0.0 1010734
05:00+8ese51184100 0.4 1011712
08:00+7ene61087100 0.9 1012840
11:00+7e796289 0.9 10131018
14:00+9e565095 0.0 10131329
17:00+10ene564557 0.0 10141516
20:00+6ene6115598 0.0 1017590
28 september, tue
tue2823:00+5ne5115241 0.0 1018445
02:00+4ne613590 0.0 1020477
05:00+2ne512660 0.0 1021491
08:00+1ne611745 0.0 1023624
11:00+5ne785211 0.0 10241051
14:00+7ne6741100 0.0 10241346
17:00+8nne6740100 0.0 10241414
20:00+5n4953100 0.0 1026240